Location: ????????
(38.4362°N, 22.8767°E)
Time: 04:56:53
(UTC+00:00)

FENGYUN 1C DEB - Pass Details

Date: 17 October 2025
Orbit: 841 x 1273 km, 99.2° (Epoch: 16 November)

Event Time Altitude Azimuth Distance (km) Brightness Sun altitude
Rises 01:32:08 0° 40° (NE) 3,408 ? -37.0°
Reaches altitude 10° 01:36:55 10° 79° (ENE) 2,504 ? -36.1°
Maximum altitude 01:38:03 11° 91° (E) 2,473 ? -35.9°
Drops below altitude 10° 01:39:13 10° 103° (ESE) 2,531 ? -35.7°
Sets 01:44:09 0° 141° (SE) 3,553 ? -34.8°
